Year,Month,Day,Hour,Minute,Value (Times are PST for temperature in C)
2017,11,22,00,00,7.90
2017,11,22,00,01,7.90
2017,11,22,00,02,7.90
2017,11,22,00,03,7.80
2017,11,22,00,04,7.80
2017,11,22,00,05,7.80
2017,11,22,00,06,7.80
2017,11,22,00,07,7.70
2017,11,22,00,08,7.70
2017,11,22,00,09,7.70
2017,11,22,00,10,7.70
2017,11,22,00,11,7.70
2017,11,22,00,12,7.60
2017,11,22,00,13,7.60
2017,11,22,00,14,7.60
2017,11,22,00,15,7.60
2017,11,22,00,16,7.60
2017,11,22,00,17,7.60
2017,11,22,00,18,7.60
2017,11,22,00,19,7.60
2017,11,22,00,20,7.60
2017,11,22,00,21,7.60
2017,11,22,00,22,7.60
2017,11,22,00,23,7.60
2017,11,22,00,24,7.60
2017,11,22,00,25,7.60
2017,11,22,00,26,7.50
2017,11,22,00,27,7.50
2017,11,22,00,28,7.50
2017,11,22,00,29,7.50
2017,11,22,00,30,7.50
2017,11,22,00,31,7.50
2017,11,22,00,32,7.50
2017,11,22,00,33,7.50
2017,11,22,00,34,7.50
2017,11,22,00,35,7.50
2017,11,22,00,36,7.50
2017,11,22,00,37,7.50
2017,11,22,00,38,7.50
2017,11,22,00,39,7.50
2017,11,22,00,40,7.50
2017,11,22,00,41,7.50
2017,11,22,00,42,7.50
2017,11,22,00,43,7.40
2017,11,22,00,44,7.40
2017,11,22,00,45,7.40
2017,11,22,00,46,7.40
2017,11,22,00,47,7.40
2017,11,22,00,48,7.40
2017,11,22,00,49,7.40
2017,11,22,00,50,7.40
2017,11,22,00,51,7.40
2017,11,22,00,52,7.40
2017,11,22,00,53,7.40
2017,11,22,00,54,7.40
2017,11,22,00,55,7.40
2017,11,22,00,56,7.40
2017,11,22,00,57,7.40
2017,11,22,00,58,7.40
2017,11,22,00,59,7.40
2017,11,22,01,00,7.40
2017,11,22,01,01,7.40
2017,11,22,01,02,7.40
2017,11,22,01,03,7.40
2017,11,22,01,04,7.40
2017,11,22,01,05,7.40
2017,11,22,01,06,7.40
2017,11,22,01,07,7.40
2017,11,22,01,08,7.40
2017,11,22,01,09,7.40
2017,11,22,01,10,7.40
2017,11,22,01,11,7.40
2017,11,22,01,12,7.40
2017,11,22,01,13,7.40
2017,11,22,01,14,7.40
2017,11,22,01,15,7.40
2017,11,22,01,16,7.40
2017,11,22,01,17,7.40
2017,11,22,01,18,7.40
2017,11,22,01,19,7.40
2017,11,22,01,20,7.40
2017,11,22,01,21,7.40
2017,11,22,01,22,7.40
2017,11,22,01,23,7.40
2017,11,22,01,24,7.40
2017,11,22,01,25,7.40
2017,11,22,01,26,7.40
2017,11,22,01,27,7.40
2017,11,22,01,28,7.40
2017,11,22,01,29,7.40
2017,11,22,01,30,7.40
2017,11,22,01,31,7.50
2017,11,22,01,32,7.40
2017,11,22,01,33,7.50
2017,11,22,01,34,7.50
2017,11,22,01,35,7.50
2017,11,22,01,36,7.50
2017,11,22,01,37,7.50
2017,11,22,01,38,7.50
2017,11,22,01,39,7.50
2017,11,22,01,40,7.50
2017,11,22,01,41,7.50
2017,11,22,01,42,7.50
2017,11,22,01,43,7.60
2017,11,22,01,44,7.60
2017,11,22,01,45,7.60
2017,11,22,01,46,7.60
2017,11,22,01,47,7.60
2017,11,22,01,48,7.60
2017,11,22,01,49,7.60
2017,11,22,01,50,7.60
2017,11,22,01,51,7.60
2017,11,22,01,52,7.70
2017,11,22,01,53,7.70
2017,11,22,01,54,7.70
2017,11,22,01,55,7.70
2017,11,22,01,56,7.70
2017,11,22,01,57,7.70
2017,11,22,01,58,7.70
2017,11,22,01,59,7.70
2017,11,22,02,00,7.70
2017,11,22,02,01,7.80
2017,11,22,02,02,7.80
2017,11,22,02,03,7.80
2017,11,22,02,04,7.80
2017,11,22,02,05,7.80
2017,11,22,02,06,7.80
2017,11,22,02,07,7.80
2017,11,22,02,08,7.90
2017,11,22,02,09,7.90
2017,11,22,02,10,8.00
2017,11,22,02,11,8.10
2017,11,22,02,12,8.20
2017,11,22,02,13,8.40
2017,11,22,02,14,8.50
2017,11,22,02,15,8.70
2017,11,22,02,16,8.80
2017,11,22,02,17,8.90
2017,11,22,02,18,9.00
2017,11,22,02,19,9.10
2017,11,22,02,20,9.20
2017,11,22,02,21,9.30
2017,11,22,02,22,9.40
2017,11,22,02,23,9.50
2017,11,22,02,24,9.60
2017,11,22,02,25,9.70
2017,11,22,02,26,9.70
2017,11,22,02,27,9.80
2017,11,22,02,28,9.80
2017,11,22,02,29,9.90
2017,11,22,02,30,9.90
2017,11,22,02,31,10.00
2017,11,22,02,32,10.00
2017,11,22,02,33,10.10
2017,11,22,02,34,10.10
2017,11,22,02,35,10.10
2017,11,22,02,36,10.10
2017,11,22,02,37,10.10
2017,11,22,02,38,10.10
2017,11,22,02,39,10.10
2017,11,22,02,40,10.20
2017,11,22,02,41,10.20
2017,11,22,02,42,10.20
2017,11,22,02,43,10.20
2017,11,22,02,44,10.20
2017,11,22,02,45,10.20
2017,11,22,02,46,10.20
2017,11,22,02,47,10.20
2017,11,22,02,48,10.20
2017,11,22,02,49,10.20
2017,11,22,02,50,10.20
2017,11,22,02,51,10.20
2017,11,22,02,52,10.20
2017,11,22,02,53,10.20
2017,11,22,02,54,10.20
2017,11,22,02,55,10.30
2017,11,22,02,56,10.30
2017,11,22,02,57,10.30
2017,11,22,02,58,10.30
2017,11,22,02,59,10.30
2017,11,22,03,00,10.30
2017,11,22,03,01,10.30
2017,11,22,03,02,10.30
2017,11,22,03,03,10.30
2017,11,22,03,04,10.30
2017,11,22,03,05,10.20
2017,11,22,03,06,10.20
2017,11,22,03,07,10.20
2017,11,22,03,08,10.20
2017,11,22,03,09,10.20
2017,11,22,03,10,10.30
2017,11,22,03,11,10.30
2017,11,22,03,12,10.30
2017,11,22,03,13,10.30
2017,11,22,03,14,10.30
2017,11,22,03,15,10.30
2017,11,22,03,16,10.30
2017,11,22,03,17,10.30
2017,11,22,03,18,10.30
2017,11,22,03,19,10.30
2017,11,22,03,20,10.30
2017,11,22,03,21,10.20
2017,11,22,03,22,10.30
2017,11,22,03,23,10.30
2017,11,22,03,24,10.30
2017,11,22,03,25,10.30
2017,11,22,03,26,10.30
2017,11,22,03,27,10.30
2017,11,22,03,28,10.30
2017,11,22,03,29,10.30
2017,11,22,03,30,10.30
2017,11,22,03,31,10.30
2017,11,22,03,32,10.30
2017,11,22,03,33,10.20
2017,11,22,03,34,10.20
2017,11,22,03,35,10.20
2017,11,22,03,36,10.20
2017,11,22,03,37,10.20
2017,11,22,03,38,10.20
2017,11,22,03,39,10.20
2017,11,22,03,40,10.20
2017,11,22,03,41,10.20
2017,11,22,03,42,10.20
2017,11,22,03,43,10.20
2017,11,22,03,44,10.20
2017,11,22,03,45,10.10
2017,11,22,03,46,10.10
2017,11,22,03,47,10.10
2017,11,22,03,48,10.10
2017,11,22,03,49,10.10
2017,11,22,03,50,10.10
2017,11,22,03,51,10.10
2017,11,22,03,52,10.10
2017,11,22,03,53,10.10
2017,11,22,03,54,10.10
2017,11,22,03,55,10.10
2017,11,22,03,56,10.10
2017,11,22,03,57,10.10
2017,11,22,03,58,10.10
2017,11,22,03,59,10.10
2017,11,22,04,00,10.10
2017,11,22,04,01,10.10
2017,11,22,04,02,10.10
2017,11,22,04,03,10.20
2017,11,22,04,04,10.20
2017,11,22,04,05,10.20
2017,11,22,04,06,10.20
2017,11,22,04,07,10.20
2017,11,22,04,08,10.20
2017,11,22,04,09,10.20
2017,11,22,04,10,10.20
2017,11,22,04,11,10.20
2017,11,22,04,12,10.20
2017,11,22,04,13,10.20
2017,11,22,04,14,10.20
2017,11,22,04,15,10.20
2017,11,22,04,16,10.20
2017,11,22,04,17,10.20
2017,11,22,04,18,10.20
2017,11,22,04,19,10.20
2017,11,22,04,20,10.20
2017,11,22,04,21,10.20
2017,11,22,04,22,10.20
2017,11,22,04,23,10.20
2017,11,22,04,24,10.20
2017,11,22,04,25,10.20
2017,11,22,04,26,10.20
2017,11,22,04,27,10.20
2017,11,22,04,28,10.20
2017,11,22,04,29,10.20
2017,11,22,04,30,10.20
2017,11,22,04,31,10.20
2017,11,22,04,32,10.30
2017,11,22,04,33,10.30
2017,11,22,04,34,10.30
2017,11,22,04,35,10.30
2017,11,22,04,36,10.30
2017,11,22,04,37,10.30
2017,11,22,04,38,10.30
2017,11,22,04,39,10.30
2017,11,22,04,40,10.30
2017,11,22,04,41,10.30
2017,11,22,04,42,10.30
2017,11,22,04,43,10.30
2017,11,22,04,44,10.30
2017,11,22,04,45,10.30
2017,11,22,04,46,10.30
2017,11,22,04,47,10.30
2017,11,22,04,48,10.30
2017,11,22,04,49,10.30
2017,11,22,04,50,10.30
2017,11,22,04,51,10.30
2017,11,22,04,52,10.30
2017,11,22,04,53,10.30
2017,11,22,04,54,10.40
2017,11,22,04,55,10.50
2017,11,22,04,56,10.50
2017,11,22,04,57,10.60
2017,11,22,04,58,10.60
2017,11,22,04,59,10.60
2017,11,22,05,00,10.70
2017,11,22,05,01,10.80
2017,11,22,05,02,10.80
2017,11,22,05,03,10.80
2017,11,22,05,04,10.90
2017,11,22,05,05,10.90
2017,11,22,05,06,11.00
2017,11,22,05,07,11.00
2017,11,22,05,08,11.00
2017,11,22,05,09,11.10
2017,11,22,05,10,11.10
2017,11,22,05,11,11.10
2017,11,22,05,12,11.10
2017,11,22,05,13,11.10
2017,11,22,05,14,11.20
2017,11,22,05,15,11.20
2017,11,22,05,16,11.20
2017,11,22,05,17,11.30
2017,11,22,05,18,11.30
2017,11,22,05,19,11.30
2017,11,22,05,20,11.40
2017,11,22,05,21,11.40
2017,11,22,05,22,11.40
2017,11,22,05,23,11.40
2017,11,22,05,24,11.50
2017,11,22,05,25,11.50
2017,11,22,05,26,11.40
2017,11,22,05,27,11.40
2017,11,22,05,28,11.40
2017,11,22,05,29,11.40
2017,11,22,05,30,11.40
2017,11,22,05,31,11.40
2017,11,22,05,32,11.40
2017,11,22,05,33,11.40
2017,11,22,05,34,11.40
2017,11,22,05,35,11.40
2017,11,22,05,36,11.50
2017,11,22,05,37,11.50
2017,11,22,05,38,11.50
2017,11,22,05,39,11.50
2017,11,22,05,40,11.50
2017,11,22,05,41,11.50
2017,11,22,05,42,11.50
2017,11,22,05,43,11.60
2017,11,22,05,44,11.60
2017,11,22,05,45,11.60
2017,11,22,05,46,11.60
2017,11,22,05,47,11.60
2017,11,22,05,48,11.60
2017,11,22,05,49,11.60
2017,11,22,05,50,11.60
2017,11,22,05,51,11.60
2017,11,22,05,52,11.60
2017,11,22,05,53,11.60
2017,11,22,05,54,11.60
2017,11,22,05,55,11.50
2017,11,22,05,56,11.50
2017,11,22,05,57,11.50
2017,11,22,05,58,11.50
2017,11,22,05,59,11.50
2017,11,22,06,00,11.50
2017,11,22,06,01,11.50
2017,11,22,06,02,11.50
2017,11,22,06,03,11.50
2017,11,22,06,04,11.50
2017,11,22,06,05,11.50
2017,11,22,06,06,11.50
2017,11,22,06,07,11.40
2017,11,22,06,08,11.40
2017,11,22,06,09,11.40
2017,11,22,06,10,11.40
2017,11,22,06,11,11.40
2017,11,22,06,12,11.40
2017,11,22,06,13,11.40
2017,11,22,06,14,11.50
2017,11,22,06,15,11.50
2017,11,22,06,16,11.50
2017,11,22,06,17,11.50
2017,11,22,06,18,11.50
2017,11,22,06,19,11.40
2017,11,22,06,20,11.40
2017,11,22,06,21,11.40
2017,11,22,06,22,11.40
2017,11,22,06,23,11.40
2017,11,22,06,24,11.40
2017,11,22,06,25,11.40
2017,11,22,06,26,11.30
2017,11,22,06,27,11.30
2017,11,22,06,28,11.30
2017,11,22,06,29,11.30
2017,11,22,06,30,11.30
2017,11,22,06,31,11.30
2017,11,22,06,32,11.30
2017,11,22,06,33,11.20
2017,11,22,06,34,11.20
2017,11,22,06,35,11.20
2017,11,22,06,36,11.10
2017,11,22,06,37,11.10
2017,11,22,06,38,11.10
2017,11,22,06,39,11.00
2017,11,22,06,40,11.00
2017,11,22,06,41,10.90
2017,11,22,06,42,10.90
2017,11,22,06,43,10.90
2017,11,22,06,44,10.90
2017,11,22,06,45,10.90
2017,11,22,06,46,10.90
2017,11,22,06,47,10.90
2017,11,22,06,48,10.90
2017,11,22,06,49,10.90
2017,11,22,06,50,10.90
2017,11,22,06,51,10.90
2017,11,22,06,52,10.90
2017,11,22,06,53,10.80
2017,11,22,06,54,10.90
2017,11,22,06,55,10.80
2017,11,22,06,56,10.80
2017,11,22,06,57,10.80
2017,11,22,06,58,10.90
2017,11,22,06,59,10.90
2017,11,22,07,00,10.90
2017,11,22,07,01,10.90
2017,11,22,07,02,10.90
2017,11,22,07,03,10.80
2017,11,22,07,04,10.90
2017,11,22,07,05,10.90
2017,11,22,07,06,10.80
2017,11,22,07,07,10.80
2017,11,22,07,08,10.80
2017,11,22,07,09,10.80
2017,11,22,07,10,10.80
2017,11,22,07,11,10.80
2017,11,22,07,12,10.80
2017,11,22,07,13,10.80
2017,11,22,07,14,10.80
2017,11,22,07,15,10.80
2017,11,22,07,16,10.80
2017,11,22,07,17,10.80
2017,11,22,07,18,10.80
2017,11,22,07,19,10.80
2017,11,22,07,20,10.90
2017,11,22,07,21,11.00
2017,11,22,07,22,11.00
2017,11,22,07,23,11.10
2017,11,22,07,24,11.10
2017,11,22,07,25,11.20
2017,11,22,07,26,11.20
2017,11,22,07,27,11.20
2017,11,22,07,28,11.20
2017,11,22,07,29,11.30
2017,11,22,07,30,11.30
2017,11,22,07,31,11.30
2017,11,22,07,32,11.30
2017,11,22,07,33,11.30
2017,11,22,07,34,11.30
2017,11,22,07,35,11.30
2017,11,22,07,36,11.30
2017,11,22,07,37,11.30
2017,11,22,07,38,11.40
2017,11,22,07,39,11.40
2017,11,22,07,40,11.40
2017,11,22,07,41,11.40
2017,11,22,07,42,11.40
2017,11,22,07,43,11.40
2017,11,22,07,44,11.40
2017,11,22,07,45,11.40
2017,11,22,07,46,11.40
2017,11,22,07,47,11.40
2017,11,22,07,48,11.40
2017,11,22,07,49,11.40
2017,11,22,07,50,11.40
2017,11,22,07,51,11.40
2017,11,22,07,52,11.40
2017,11,22,07,53,11.40
2017,11,22,07,54,11.40
2017,11,22,07,55,11.40
2017,11,22,07,56,11.40
2017,11,22,07,57,11.40
2017,11,22,07,58,11.40
2017,11,22,07,59,11.30
2017,11,22,08,00,11.30
2017,11,22,08,01,11.30
2017,11,22,08,02,11.30
2017,11,22,08,03,11.20
2017,11,22,08,04,11.20
2017,11,22,08,05,11.30
2017,11,22,08,06,11.30
2017,11,22,08,07,11.30
2017,11,22,08,08,11.30
2017,11,22,08,09,11.30
2017,11,22,08,10,11.30
2017,11,22,08,11,11.30
2017,11,22,08,12,11.30
2017,11,22,08,13,11.30
2017,11,22,08,14,11.30
2017,11,22,08,15,11.40
2017,11,22,08,16,11.40
2017,11,22,08,17,11.40
2017,11,22,08,18,11.40
2017,11,22,08,19,11.50
2017,11,22,08,20,11.50
2017,11,22,08,21,11.50
2017,11,22,08,22,11.60
2017,11,22,08,23,11.60
2017,11,22,08,24,11.60
2017,11,22,08,25,11.70
2017,11,22,08,26,11.70
2017,11,22,08,27,11.70
2017,11,22,08,28,11.70
2017,11,22,08,29,11.70
2017,11,22,08,30,11.70
2017,11,22,08,31,11.80
2017,11,22,08,32,11.80
2017,11,22,08,33,11.80
2017,11,22,08,34,11.80
2017,11,22,08,35,11.80
2017,11,22,08,36,11.70
2017,11,22,08,37,11.70
2017,11,22,08,38,11.60
2017,11,22,08,39,11.60
2017,11,22,08,40,11.60
2017,11,22,08,41,11.50
2017,11,22,08,42,11.40
2017,11,22,08,43,11.40
2017,11,22,08,44,11.30
2017,11,22,08,45,11.40
2017,11,22,08,46,11.40
2017,11,22,08,47,11.50
2017,11,22,08,48,11.50
2017,11,22,08,49,11.50
2017,11,22,08,50,11.50
2017,11,22,08,51,11.60
2017,11,22,08,52,11.70
2017,11,22,08,53,11.80
2017,11,22,08,54,11.80
2017,11,22,08,55,11.90
2017,11,22,08,56,12.00
2017,11,22,08,57,12.00
2017,11,22,08,58,12.10
2017,11,22,08,59,12.20
2017,11,22,09,00,12.20
2017,11,22,09,01,12.30
2017,11,22,09,02,12.30
2017,11,22,09,03,12.30
2017,11,22,09,04,12.30
2017,11,22,09,05,12.40
2017,11,22,09,06,12.40
2017,11,22,09,07,12.50
2017,11,22,09,08,12.50
2017,11,22,09,09,12.60
2017,11,22,09,10,12.60
2017,11,22,09,11,12.60
2017,11,22,09,12,12.60
2017,11,22,09,13,12.60
2017,11,22,09,14,12.60
2017,11,22,09,15,12.60
2017,11,22,09,16,12.60
2017,11,22,09,17,12.60
2017,11,22,09,18,12.60
2017,11,22,09,19,12.60
2017,11,22,09,20,12.60
2017,11,22,09,21,12.60
2017,11,22,09,22,12.60
2017,11,22,09,23,12.50
2017,11,22,09,24,12.50
2017,11,22,09,25,12.50
2017,11,22,09,26,12.50
2017,11,22,09,27,12.50
2017,11,22,09,28,12.50
2017,11,22,09,29,12.50
2017,11,22,09,30,12.50
2017,11,22,09,31,12.50
2017,11,22,09,32,12.50
2017,11,22,09,33,12.50
2017,11,22,09,34,12.50
2017,11,22,09,35,12.50
2017,11,22,09,36,12.50
2017,11,22,09,37,12.50
2017,11,22,09,38,12.50
2017,11,22,09,39,12.50
2017,11,22,09,40,12.40
2017,11,22,09,41,12.40
2017,11,22,09,42,12.40
2017,11,22,09,43,12.30
2017,11,22,09,44,12.20
2017,11,22,09,45,12.10
2017,11,22,09,46,12.10
2017,11,22,09,47,12.00
2017,11,22,09,48,11.90
2017,11,22,09,49,11.80
2017,11,22,09,50,11.70
2017,11,22,09,51,11.70
2017,11,22,09,52,11.70
2017,11,22,09,53,11.70
2017,11,22,09,54,11.70
2017,11,22,09,55,11.70
2017,11,22,09,56,11.70
2017,11,22,09,57,11.70
2017,11,22,09,58,11.70
2017,11,22,09,59,11.70
2017,11,22,10,00,11.70
2017,11,22,10,01,11.70
2017,11,22,10,02,11.70
2017,11,22,10,03,11.70
2017,11,22,10,04,11.80
2017,11,22,10,05,11.80
2017,11,22,10,06,11.80
2017,11,22,10,07,11.90
2017,11,22,10,08,11.90
2017,11,22,10,09,11.90
2017,11,22,10,10,11.90
2017,11,22,10,11,11.90
2017,11,22,10,12,12.00
2017,11,22,10,13,12.00
2017,11,22,10,14,12.10
2017,11,22,10,15,12.10
2017,11,22,10,16,12.10
2017,11,22,10,17,12.10
2017,11,22,10,18,12.10
2017,11,22,10,19,12.10
2017,11,22,10,20,12.10
2017,11,22,10,21,12.20
2017,11,22,10,22,12.20
2017,11,22,10,23,12.20
2017,11,22,10,24,12.20
2017,11,22,10,25,12.30
2017,11,22,10,26,12.40
2017,11,22,10,27,12.50
2017,11,22,10,28,12.60
2017,11,22,10,29,12.60
2017,11,22,10,30,12.60
2017,11,22,10,31,12.70
2017,11,22,10,32,12.70
2017,11,22,10,33,12.70
2017,11,22,10,34,12.70
2017,11,22,10,35,12.70
2017,11,22,10,36,12.70
2017,11,22,10,37,12.70
2017,11,22,10,38,12.80
2017,11,22,10,39,12.80
2017,11,22,10,40,12.80
2017,11,22,10,41,12.80
2017,11,22,10,42,12.80
2017,11,22,10,43,12.80
2017,11,22,10,44,12.80
2017,11,22,10,45,12.90
2017,11,22,10,46,12.90
2017,11,22,10,47,12.90
2017,11,22,10,48,12.90
2017,11,22,10,49,12.90
2017,11,22,10,50,12.90
2017,11,22,10,51,12.90
2017,11,22,10,52,12.90
2017,11,22,10,53,12.90
2017,11,22,10,54,12.80
2017,11,22,10,55,12.80
2017,11,22,10,56,12.80
2017,11,22,10,57,12.80
2017,11,22,10,58,12.80
2017,11,22,10,59,12.80
2017,11,22,11,00,12.80
2017,11,22,11,01,12.70
2017,11,22,11,02,12.70
2017,11,22,11,03,12.60
2017,11,22,11,04,12.60
2017,11,22,11,05,12.60
2017,11,22,11,06,12.60
2017,11,22,11,07,12.60
2017,11,22,11,08,12.50
2017,11,22,11,09,12.50
2017,11,22,11,10,12.40
2017,11,22,11,11,12.40
2017,11,22,11,12,12.30
2017,11,22,11,13,12.30
2017,11,22,11,14,12.30
2017,11,22,11,15,12.20
2017,11,22,11,16,12.20
2017,11,22,11,17,12.20
2017,11,22,11,18,12.20
2017,11,22,11,19,12.20
2017,11,22,11,20,12.20
2017,11,22,11,21,12.20
2017,11,22,11,22,12.20
2017,11,22,11,23,12.20
2017,11,22,11,24,12.20
2017,11,22,11,25,12.20
2017,11,22,11,26,12.20
2017,11,22,11,27,12.20
2017,11,22,11,28,12.20
2017,11,22,11,29,12.20
2017,11,22,11,30,12.20
2017,11,22,11,31,12.20
2017,11,22,11,32,12.20
2017,11,22,11,33,12.20
2017,11,22,11,34,12.20
2017,11,22,11,35,12.20
2017,11,22,11,36,12.20
2017,11,22,11,37,12.30
2017,11,22,11,38,12.30
2017,11,22,11,39,12.30
2017,11,22,11,40,12.40
2017,11,22,11,41,12.40
2017,11,22,11,42,12.40
2017,11,22,11,43,12.50
2017,11,22,11,44,12.50
2017,11,22,11,45,12.60
2017,11,22,11,46,12.60
2017,11,22,11,47,12.60
2017,11,22,11,48,12.70
2017,11,22,11,49,12.70
2017,11,22,11,50,12.70
2017,11,22,11,51,12.70
2017,11,22,11,52,12.70
2017,11,22,11,53,12.80
2017,11,22,11,54,12.80
2017,11,22,11,55,12.80
2017,11,22,11,56,12.90
2017,11,22,11,57,12.90
2017,11,22,11,58,13.00
2017,11,22,11,59,13.10
2017,11,22,12,00,13.10
2017,11,22,12,01,13.20
2017,11,22,12,02,13.20
2017,11,22,12,03,13.20
2017,11,22,12,04,13.30
2017,11,22,12,05,13.30
2017,11,22,12,06,13.30
2017,11,22,12,07,13.40
2017,11,22,12,08,13.40
2017,11,22,12,09,13.40
2017,11,22,12,10,13.50
2017,11,22,12,11,13.50
2017,11,22,12,12,13.50
2017,11,22,12,13,13.60
2017,11,22,12,14,13.60
2017,11,22,12,15,13.60
2017,11,22,12,16,13.60
2017,11,22,12,17,13.70
2017,11,22,12,18,13.70
2017,11,22,12,19,13.70
2017,11,22,12,20,13.70
2017,11,22,12,21,13.80
2017,11,22,12,22,13.80
2017,11,22,12,23,13.80
2017,11,22,12,24,13.70
2017,11,22,12,25,13.70
2017,11,22,12,26,13.70
2017,11,22,12,27,13.70
2017,11,22,12,28,13.70
2017,11,22,12,29,13.70
2017,11,22,12,30,13.60
2017,11,22,12,31,13.60
2017,11,22,12,32,13.60
2017,11,22,12,33,13.60
2017,11,22,12,34,13.50
2017,11,22,12,35,13.50
2017,11,22,12,36,13.50
2017,11,22,12,37,13.50
2017,11,22,12,38,13.50
2017,11,22,12,39,13.40
2017,11,22,12,40,13.40
2017,11,22,12,41,13.40
2017,11,22,12,42,13.40
2017,11,22,12,43,13.40
2017,11,22,12,44,13.40
2017,11,22,12,45,13.40
2017,11,22,12,46,13.40
2017,11,22,12,47,13.40
2017,11,22,12,48,13.40
2017,11,22,12,49,13.40
2017,11,22,12,50,13.40
2017,11,22,12,51,13.40
2017,11,22,12,52,13.30
2017,11,22,12,53,13.40
2017,11,22,12,54,13.30
2017,11,22,12,55,13.30
2017,11,22,12,56,13.30
2017,11,22,12,57,13.30
2017,11,22,12,58,13.30
2017,11,22,12,59,13.30
2017,11,22,13,00,13.30
2017,11,22,13,01,13.40
2017,11,22,13,02,13.40
2017,11,22,13,03,13.40
2017,11,22,13,04,13.40
2017,11,22,13,05,13.40
2017,11,22,13,06,13.40
2017,11,22,13,07,13.40
2017,11,22,13,08,13.40
2017,11,22,13,09,13.40
2017,11,22,13,10,13.40
2017,11,22,13,11,13.40
2017,11,22,13,12,13.40
2017,11,22,13,13,13.40
2017,11,22,13,14,13.40
2017,11,22,13,15,13.40
2017,11,22,13,16,13.50
2017,11,22,13,17,13.50
2017,11,22,13,18,13.50
2017,11,22,13,19,13.50
2017,11,22,13,20,13.60
2017,11,22,13,21,13.60
2017,11,22,13,22,13.60
2017,11,22,13,23,13.70
2017,11,22,13,24,13.70
2017,11,22,13,25,13.70
2017,11,22,13,26,13.70
2017,11,22,13,27,13.70
2017,11,22,13,28,13.70
2017,11,22,13,29,13.70
2017,11,22,13,30,13.70
2017,11,22,13,31,13.70
2017,11,22,13,32,13.70
2017,11,22,13,33,13.70
2017,11,22,13,34,13.70
2017,11,22,13,35,13.70
2017,11,22,13,36,13.70
2017,11,22,13,37,13.70
2017,11,22,13,38,13.70
2017,11,22,13,39,13.70
2017,11,22,13,40,13.70
2017,11,22,13,41,13.70
2017,11,22,13,42,13.70
2017,11,22,13,43,13.80
2017,11,22,13,44,13.80
2017,11,22,13,45,13.80
2017,11,22,13,46,13.80
2017,11,22,13,47,13.80
2017,11,22,13,48,13.80
2017,11,22,13,49,13.80
2017,11,22,13,50,13.80
2017,11,22,13,51,13.80
2017,11,22,13,52,13.80
2017,11,22,13,53,13.90
2017,11,22,13,54,13.90
2017,11,22,13,55,13.90
2017,11,22,13,56,13.90
2017,11,22,13,57,13.90
2017,11,22,13,58,13.90
2017,11,22,13,59,13.90
2017,11,22,14,00,13.90
2017,11,22,14,01,13.90
2017,11,22,14,02,13.90
2017,11,22,14,03,13.90
2017,11,22,14,04,13.90
2017,11,22,14,05,14.00
2017,11,22,14,06,14.00
2017,11,22,14,07,13.90
2017,11,22,14,08,13.90
2017,11,22,14,09,13.90
2017,11,22,14,10,13.90
2017,11,22,14,11,13.90
2017,11,22,14,12,13.90
2017,11,22,14,13,13.90
2017,11,22,14,14,13.90
2017,11,22,14,15,13.90
2017,11,22,14,16,13.90
2017,11,22,14,17,13.90
2017,11,22,14,18,13.90
2017,11,22,14,19,13.90
2017,11,22,14,20,13.90
2017,11,22,14,21,13.90
2017,11,22,14,22,13.90
2017,11,22,14,23,13.90
2017,11,22,14,24,13.90
2017,11,22,14,25,13.90
2017,11,22,14,26,13.90
2017,11,22,14,27,13.90
2017,11,22,14,28,13.90
2017,11,22,14,29,13.90
2017,11,22,14,30,13.90
2017,11,22,14,31,13.90
2017,11,22,14,32,13.90
2017,11,22,14,33,13.90
2017,11,22,14,34,13.90
2017,11,22,14,35,13.90
2017,11,22,14,36,13.90
2017,11,22,14,37,14.00
2017,11,22,14,38,14.00
2017,11,22,14,39,14.00
2017,11,22,14,40,14.00
2017,11,22,14,41,14.00
2017,11,22,14,42,14.00
2017,11,22,14,43,14.00
2017,11,22,14,44,14.00
2017,11,22,14,45,14.00
2017,11,22,14,46,14.00
2017,11,22,14,47,14.00
2017,11,22,14,48,14.00
2017,11,22,14,49,14.00
2017,11,22,14,50,14.00
2017,11,22,14,51,14.00
2017,11,22,14,52,14.00
2017,11,22,14,53,14.00
2017,11,22,14,54,14.00
2017,11,22,14,55,14.00
2017,11,22,14,56,14.00
2017,11,22,14,57,14.00
2017,11,22,14,58,14.00
2017,11,22,14,59,13.90
2017,11,22,15,00,13.90
2017,11,22,15,01,13.90
2017,11,22,15,02,13.90
2017,11,22,15,03,13.90
2017,11,22,15,04,13.90
2017,11,22,15,05,13.90
2017,11,22,15,06,13.80
2017,11,22,15,07,13.80
2017,11,22,15,08,13.80
2017,11,22,15,09,13.80
2017,11,22,15,10,13.80
2017,11,22,15,11,13.80
2017,11,22,15,12,13.80
2017,11,22,15,13,13.80
2017,11,22,15,14,13.80
2017,11,22,15,15,13.80
2017,11,22,15,16,13.80
2017,11,22,15,17,13.80
2017,11,22,15,18,13.80
2017,11,22,15,19,13.80
2017,11,22,15,20,13.80
2017,11,22,15,21,13.80
2017,11,22,15,22,13.80
2017,11,22,15,23,13.80
2017,11,22,15,24,13.80
2017,11,22,15,25,13.80
2017,11,22,15,26,13.80
2017,11,22,15,27,13.70
2017,11,22,15,28,13.70
2017,11,22,15,29,13.70
2017,11,22,15,30,13.70
2017,11,22,15,31,13.70
2017,11,22,15,32,13.70
2017,11,22,15,33,13.70
2017,11,22,15,34,13.70
2017,11,22,15,35,13.70
2017,11,22,15,36,13.70
2017,11,22,15,37,13.70
2017,11,22,15,38,13.70
2017,11,22,15,39,13.70
2017,11,22,15,40,13.70
2017,11,22,15,41,13.70
2017,11,22,15,42,13.70
2017,11,22,15,43,13.70
2017,11,22,15,44,13.70
2017,11,22,15,45,13.70
2017,11,22,15,46,13.70
2017,11,22,15,47,13.70
2017,11,22,15,48,13.70
2017,11,22,15,49,13.70
2017,11,22,15,50,13.70
2017,11,22,15,51,13.70
2017,11,22,15,52,13.70
2017,11,22,15,53,13.60
2017,11,22,15,54,13.60
2017,11,22,15,55,13.60
2017,11,22,15,56,13.60
2017,11,22,15,57,13.60
2017,11,22,15,58,13.60
2017,11,22,15,59,13.60
2017,11,22,16,00,13.60
2017,11,22,16,01,13.60
2017,11,22,16,02,13.60
2017,11,22,16,03,13.60
2017,11,22,16,04,13.60
2017,11,22,16,05,13.60
2017,11,22,16,06,13.60
2017,11,22,16,07,13.60
2017,11,22,16,08,13.60
2017,11,22,16,09,13.60
2017,11,22,16,10,13.60
2017,11,22,16,11,13.60
2017,11,22,16,12,13.60
2017,11,22,16,13,13.60
2017,11,22,16,14,13.60
2017,11,22,16,15,13.50
2017,11,22,16,16,13.50
2017,11,22,16,17,13.50
2017,11,22,16,18,13.50
2017,11,22,16,19,13.50
2017,11,22,16,20,13.40
2017,11,22,16,21,13.40
2017,11,22,16,22,13.40
2017,11,22,16,23,13.40
2017,11,22,16,24,13.50
2017,11,22,16,25,13.50
2017,11,22,16,26,13.50
2017,11,22,16,27,13.50
2017,11,22,16,28,13.50
2017,11,22,16,29,13.50
2017,11,22,16,30,13.50
2017,11,22,16,31,13.50
2017,11,22,16,32,13.50
2017,11,22,16,33,13.50
2017,11,22,16,34,13.40
2017,11,22,16,35,13.40
2017,11,22,16,36,13.40
2017,11,22,16,37,13.40
2017,11,22,16,38,13.40
2017,11,22,16,39,13.40
2017,11,22,16,40,13.30
2017,11,22,16,41,13.30
2017,11,22,16,42,13.30
2017,11,22,16,43,13.30
2017,11,22,16,44,13.30
2017,11,22,16,45,13.30
2017,11,22,16,46,13.30
2017,11,22,16,47,13.40
2017,11,22,16,48,13.40
2017,11,22,16,49,13.50
2017,11,22,16,50,13.50
2017,11,22,16,51,13.60
2017,11,22,16,52,13.60
2017,11,22,16,53,13.60
2017,11,22,16,54,13.60
2017,11,22,16,55,13.70
2017,11,22,16,56,13.70
2017,11,22,16,57,13.70
2017,11,22,16,58,13.80
2017,11,22,16,59,13.80
2017,11,22,17,00,13.80
2017,11,22,17,01,13.80
2017,11,22,17,02,13.80
2017,11,22,17,03,13.80
2017,11,22,17,04,13.80
2017,11,22,17,05,13.80
2017,11,22,17,06,13.80
2017,11,22,17,07,13.80
2017,11,22,17,08,13.80
2017,11,22,17,09,13.80
2017,11,22,17,10,13.80
2017,11,22,17,11,13.80
2017,11,22,17,12,13.80
2017,11,22,17,13,13.80
2017,11,22,17,14,13.80
2017,11,22,17,15,13.80
2017,11,22,17,16,13.80
2017,11,22,17,17,13.80
2017,11,22,17,18,13.80
2017,11,22,17,19,13.80
2017,11,22,17,20,13.80
2017,11,22,17,21,13.80
2017,11,22,17,22,13.80
2017,11,22,17,23,13.80
2017,11,22,17,24,13.80
2017,11,22,17,25,13.80
2017,11,22,17,26,13.80